Weather in Albertville

France     45°40′09″N   6°23′33″E
temp.,
°C
wind,
m/s
gust,
m/s
humid.,
%
clouds,
%
prec.,
mm/h
press.,
hPa
HPBL,
m
21 october, thu
thu2123:00+8se32735 0.0 101631
02:00+9se336454 0.0 101354
05:00+8ese2395100 3.8 1015105
08:00+7wsw1299100 8.4 101797
11:00+9w237816 1.5 1017682
14:00+11w23593 1.5 10161139
17:00+9w22582 0.0 1016969
20:00+4n11922 0.0 101910
22 october, fri
fri2223:00+3ene21941 0.0 102015
02:00+2e21912 0.0 102013
05:00+2ene22865 0.0 102015
08:00+1e21835 0.0 102111
11:00+8wnw11638 0.0 1020639
14:00+8nw2262100 0.1 10191156
17:00+7nw127869 0.1 1020351
20:00+4nne119161 0.2 102317
23 october, sat
sat2323:00+2ene21933 0.0 102414
02:00+1e21892 0.0 102511
05:000ene11871 0.0 102511
08:000e11792 0.0 102510
11:00+7wnw11540 0.0 1023351
14:00+10w21480 0.0 1021742
17:00+9w21630 0.0 1022407
20:00+3e11890 0.0 102510
24 october, sun
sun2423:00+3e22730 0.0 102614
02:00+3ese22760 0.0 102619
05:00+2ese32761 0.0 102625
08:00+2ese22652 0.0 102622
11:00+10sse11390 0.0 1024266
14:00+14wsw21310 0.0 1022842
17:00+12w22530 0.0 1022104
20:00+5e22750 0.0 102413
25 october, mon
mon2523:00+4e226699 0.0 102517
02:00+4ese226471 0.0 102516
05:00+3e22595 0.0 102417
08:00+3e21545 0.0 102413
11:00+10wsw104391 0.0 1022324
14:00+12w21455 0.0 10211092
17:00+11wnw22604 0.0 1020707
20:00+4ne229312 0.0 102413